Latest Coastal Weather Observations for Marion Reef

IDQ60701

Issued at 12:22 pm EST Sunday 14 April 2024 (issued every 10 minutes, with the page automatically refreshed every 10 minutes)

About coastal observations | Map of coastal stations | Coastal observations for QLD | Marine services | Other Formats
Station Details ID: 200704 Name: MARION REEF Lat: -19.10 Lon: 152.39 Height: 2.0 m
Data from the previous 72 hours. | See also: Recent months for locations in Queensland
Date/Time
EST
Wind Sea
Height
m
Swell Vis
km
Cloud Weather Temp
°C
Press
MSL
hPa
Rain since
9am
mm
Dir  Spd
kts
Gust
kts
Height
m
Period
s
Dir
14/12:00pm SE 21 24 - - - - - - - 27.0 1016.8 -
14/11:30am SE 21 25 - - - - - - - 27.0 1017.1 -
14/11:00am SE 20 24 - - - - - - - 27.2 1017.3 -
14/10:30am SE 21 24 - - - - - - - 27.0 1017.4 -
14/10:00am SE 21 24 - - - - - - - 27.0 1017.7 -
14/09:30am SE 21 25 - - - - - - - 26.9 1017.7 -
14/09:00am ESE 21 24 - - - - - - - 26.9 1017.7 -
14/08:30am ESE 20 23 - - - - - - - 27.1 1017.4 -
14/08:00am SE 21 24 - - - - - - - 26.9 1017.1 -
14/07:30am SE 20 23 - - - - - - - 26.8 1017.0 -
14/07:00am SE 19 22 - - - - - - - 26.6 1016.7 -
14/06:30am SE 20 23 - - - - - - - 26.8 1016.4 -
14/06:00am SE 20 24 - - - - - - - 26.6 1016.2 -
14/05:30am SE 20 24 - - - - - - - 26.8 1015.8 -
14/05:00am SE 20 24 - - - - - - - 26.8 1015.7 -
14/04:30am SE 21 25 - - - - - - - 26.5 1015.7 -
14/04:00am ESE 21 25 - - - - - - - 26.6 1015.6 -
14/03:30am SE 22 26 - - - - - - - 26.6 1015.5 -
14/03:00am SE 21 25 - - - - - - - 26.7 1015.4 -
14/02:30am SE 22 27 - - - - - - - 26.5 1015.5 -
14/02:00am SE 22 26 - - - - - - - 26.7 1015.6 -
14/01:30am SE 21 24 - - - - - - - 26.5 1015.7 -
14/01:00am SE 21 24 - - - - - - - 26.7 1016.0 -
14/12:30am SE 20 24 - - - - - - - 26.7 1016.3 -
14/12:00am SE 21 26 - - - - - - - 26.8 1016.6 -
 
Date/Time
EST
Wind Sea
Height
m
Swell Vis
km
Cloud Weather Temp
°C
Press
MSL
hPa
Rain since
9am
mm
Dir  Spd
kts
Gust
kts
Height
m
Period
s
Dir
13/11:30pm SE 21 25 - - - - - - - 26.8 1016.8 -
13/11:00pm SE 20 24 - - - - - - - 26.7 1016.9 -
13/10:30pm SE 22 26 - - - - - - - 26.9 1016.9 -
13/10:00pm ESE 21 25 - - - - - - - 26.8 1017.1 -
13/09:30pm SE 21 25 - - - - - - - 26.9 1017.3 -
13/09:00pm SE 22 25 - - - - - - - 26.9 1017.2 -
13/08:30pm SE 22 27 - - - - - - - 27.1 1017.0 -
13/08:00pm SE 21 24 - - - - - - - 26.9 1016.8 -
13/07:30pm SE 22 26 - - - - - - - 27.0 1016.4 -
13/07:00pm SE 21 25 - - - - - - - 27.0 1016.0 -
13/06:30pm SE 22 25 - - - - - - - 26.9 1015.8 -
13/06:00pm SE 22 25 - - - - - - - 26.9 1015.6 -
13/05:30pm SE 22 25 - - - - - - - 27.0 1015.3 -
13/05:00pm SE 22 25 - - - - - - - 26.9 1015.0 -
13/04:30pm SE 21 25 - - - - - - - 26.9 1014.7 -
13/04:00pm SE 21 25 - - - - - - - 27.0 1014.3 -
13/03:30pm SE 21 24 - - - - - - - 26.9 1014.1 -
13/03:00pm SE 21 25 - - - - - - - 26.9 1014.0 -
13/02:30pm SE 21 24 - - - - - - - 26.9 1014.1 -
13/02:00pm SE 21 25 - - - - - - - 26.8 1014.3 -
13/01:30pm SE 21 25 - - - - - - - 27.0 1014.3 -
13/01:00pm SE 22 25 - - - - - - - 27.0 1014.5 -
13/12:30pm SE 23 26 - - - - - - - 27.0 1014.7 -
13/12:00pm SE 23 26 - - - - - - - 26.9 1015.0 -
13/11:30am SE 23 27 - - - - - - - 26.8 1015.4 -
13/11:00am SE 24 27 - - - - - - - 27.0 1015.9 -
13/10:30am ESE 24 29 - - - - - - - 26.8 1016.2 -
13/10:00am SE 23 27 - - - - - - - 26.9 1016.2 -
13/09:30am ESE 23 28 - - - - - - - 26.8 1016.2 -
13/09:00am SE 24 27 - - - - - - - 26.8 1016.1 -
13/08:30am SE 23 27 - - - - - - - 26.9 1015.9 -
13/08:00am SE 23 28 - - - - - - - 26.9 1015.8 -
13/07:30am SE 22 27 - - - - - - - 26.7 1015.6 -
13/07:00am SE 23 28 - - - - - - - 26.6 1015.1 -
13/06:30am SE 23 28 - - - - - - - 26.6 1014.8 -
13/06:00am SE 24 28 - - - - - - - 26.6 1014.4 -
13/05:30am SE 22 27 - - - - - - - 26.6 1014.2 -
13/05:00am SE 21 26 - - - - - - - 26.7 1014.0 -
13/04:30am ESE 22 25 - - - - - - - 26.6 1013.7 -
13/04:00am SE 21 25 - - - - - - - 26.7 1013.5 -
13/03:30am SE 20 22 - - - - - - - 26.7 1013.5 -
13/03:00am SE 21 24 - - - - - - - 26.6 1013.6 -
13/02:30am SE 21 27 - - - - - - - 26.7 1013.7 -
13/02:00am ESE 20 26 - - - - - - - 26.5 1013.7 -
13/01:30am SE 21 25 - - - - - - - 26.5 1013.8 -
13/01:00am SE 21 25 - - - - - - - 26.6 1014.0 -
13/12:30am SE 21 24 - - - - - - - 26.6 1014.3 -
13/12:00am ESE 21 24 - - - - - - - 26.7 1014.5 -
 
Date/Time
EST
Wind Sea
Height
m
Swell Vis
km
Cloud Weather Temp
°C
Press
MSL
hPa
Rain since
9am
mm
Dir  Spd
kts
Gust
kts
Height
m
Period
s
Dir
12/11:30pm SE 20 25 - - - - - - - 26.6 1014.8 -
12/11:00pm ESE 22 27 - - - - - - - 26.7 1014.9 -
12/10:30pm ESE 22 27 - - - - - - - 26.7 1014.8 -
12/10:00pm SE 22 26 - - - - - - - 26.8 1014.8 -
12/09:30pm SE 24 28 - - - - - - - 26.8 1015.0 -
12/09:00pm SE 23 28 - - - - - - - 26.9 1015.1 -
12/08:30pm SE 23 27 - - - - - - - 27.0 1015.0 -
12/08:00pm SE 22 28 - - - - - - - 27.0 1014.9 -
12/07:30pm SE 22 27 - - - - - - - 26.9 1014.4 -
12/07:00pm SE 21 25 - - - - - - - 27.0 1014.0 -
12/06:30pm SE 21 25 - - - - - - - 27.0 1013.6 -
12/06:00pm SE 20 25 - - - - - - - 27.0 1013.2 -
12/05:30pm SE 20 25 - - - - - - - 27.1 1012.9 -
12/05:00pm SE 21 25 - - - - - - - 27.0 1012.5 -
12/04:30pm SE 19 24 - - - - - - - 27.0 1012.2 -
12/04:00pm SSE 19 22 - - - - - - - 27.1 1011.9 -
12/03:30pm SE 20 24 - - - - - - - 26.8 1011.9 -
12/03:00pm SE 21 24 - - - - - - - 27.0 1011.9 -
12/02:30pm SE 23 27 - - - - - - - 27.0 1011.9 -
12/02:00pm SE 21 25 - - - - - - - 27.1 1012.0 -
12/01:30pm SSE 21 26 - - - - - - - 27.3 1012.1 -
12/01:00pm SE 20 23 - - - - - - - 27.3 1012.3 -
12/12:30pm SE 20 23 - - - - - - - 27.3 1012.6 -
12/12:00pm SE 20 24 - - - - - - - 27.2 1012.9 -
12/11:30am SE 21 24 - - - - - - - 27.2 1013.4 -
12/11:00am SE 22 25 - - - - - - - 27.2 1013.9 -
12/10:30am SE 23 27 - - - - - - - 27.0 1014.4 -
12/10:00am SE 23 27 - - - - - - - 27.1 1014.6 -
12/09:30am SE 24 28 - - - - - - - 27.1 1014.6 -
12/09:00am SE 24 29 - - - - - - - 26.8 1014.3 -
12/08:30am SE 24 29 - - - - - - - 26.9 1013.9 -
12/08:00am SE 24 28 - - - - - - - 27.0 1013.5 -
12/07:30am SSE 25 30 - - - - - - - 26.9 1013.1 -
12/07:00am SE 25 29 - - - - - - - 26.8 1012.9 -
12/06:30am SE 24 29 - - - - - - - 25.9 1012.7 -
12/06:00am SE 24 32 - - - - - - - 25.0 1012.8 -
12/05:54am SSE 18 30 - - - - - - - 26.3 1012.6 -
12/05:30am SE 25 29 - - - - - - - 25.7 1012.4 -
12/05:00am SSE 28 34 - - - - - - - 25.1 1012.4 -
12/04:30am SSE 25 29 - - - - - - - 25.3 1012.2 -
12/04:07am SE 27 38 - - - - - - - 23.9 1012.2 -
12/04:01am SE 24 38 - - - - - - - 25.2 1011.9 -
12/04:00am SE 22 38 - - - - - - - 25.4 1012.0 -
12/03:30am SSE 28 34 - - - - - - - 24.3 1012.1 -
12/03:23am SSE 23 33 - - - - - - - 25.5 1011.9 -
12/03:00am SSE 23 29 - - - - - - - 25.8 1012.1 -
12/02:30am SE 22 27 - - - - - - - 26.1 1012.0 -
12/02:00am SE 23 27 - - - - - - - 26.2 1012.1 -
12/01:42am SSE 22 32 - - - - - - - 26.3 1012.1 -
12/01:30am SE 23 26 - - - - - - - 26.8 1012.1 -
12/01:00am SE 22 25 - - - - - - - 26.8 1012.4 -
12/12:30am SE 22 25 - - - - - - - 26.9 1012.7 -
12/12:00am SE 21 30 - - - - - - - 26.0 1013.0 -
 
Date/Time
EST
Wind Sea
Height
m
Swell Vis
km
Cloud Weather Temp
°C
Press
MSL
hPa
Rain since
9am
mm
Dir  Spd
kts
Gust
kts
Height
m
Period
s
Dir
11/11:56pm SE 19 30 - - - - - - - 26.3 1013.1 -
11/11:30pm SE 19 24 - - - - - - - 26.4 1013.3 -
11/11:06pm SE 25 35 - - - - - - - 25.3 1013.5 -
11/11:00pm SE 21 35 - - - - - - - 25.4 1013.5 -
11/10:58pm SE 18 29 - - - - - - - 26.4 1013.4 -
11/10:30pm SE 17 21 - - - - - - - 26.9 1013.4 -
11/10:00pm SE 18 21 - - - - - - - 26.9 1013.5 -
11/09:30pm SE 19 22 - - - - - - - 27.0 1013.5 -
11/09:00pm SE 20 23 - - - - - - - 27.0 1013.6 -
11/08:30pm SE 19 22 - - - - - - - 26.8 1013.5 -
11/08:00pm SE 19 23 - - - - - - - 27.0 1013.2 -
11/07:30pm SE 20 23 - - - - - - - 26.9 1012.9 -
11/07:00pm SE 20 24 - - - - - - - 26.8 1012.5 -
11/06:30pm SE 21 25 - - - - - - - 26.9 1012.3 -
11/06:00pm SE 21 25 - - - - - - - 26.8 1012.0 -
11/05:30pm SSE 21 24 - - - - - - - 26.9 1011.9 -
11/05:00pm SE 20 23 - - - - - - - 26.8 1011.8 -
11/04:30pm SSE 20 24 - - - - - - - 27.1 1011.6 -
11/04:00pm SSE 20 25 - - - - - - - 27.0 1011.4 -
11/03:30pm SSE 19 23 - - - - - - - 27.0 1011.2 -
11/03:00pm SSE 19 23 - - - - - - - 26.9 1011.0 -
11/02:30pm SSE 19 22 - - - - - - - 26.7 1011.2 -
11/02:00pm SSE 20 24 - - - - - - - 26.6 1011.2 -
11/01:30pm SSE 19 23 - - - - - - - 26.7 1011.3 -
11/01:00pm SSE 19 22 - - - - - - - 26.6 1011.5 -
11/12:30pm SE 20 23 - - - - - - - 26.6 1011.8 -

Other formats

Comma delimited format used in spreadsheet applications
http://www.bom.gov.au/fwo/IDQ60701/IDQ60701.94298.axf

JavaScript Object Notation format (JSON) in row-major order
http://www.bom.gov.au/fwo/IDQ60701/IDQ60701.94298.json

Data quality

Most of these data are generated automatically and are frequently updated. Quality checks on data are not normally performed. It is possible for incorrect values to appear. Refer to information at About Latest Weather Observations and please check the disclaimer before using these data.